Location: Les Salelles
(44.4192°N, 4.1044°E)
Time: 18:54:11
(UTC+00:00)

Cosmos 923 Rocket - Pass Details

Date: 20 January 2021
Orbit: 758 x 785 km, 74.0° (Epoch: 04 March)

Event Time Altitude Azimuth Distance (km) Brightness Sun altitude
Rises 18:09:31 0° 342° (NNW) 3,286 7.3 -16.4°
Reaches altitude 10° 18:11:59 10° 348° (NNW) 2,352 6.5 -16.8°
Maximum altitude 18:17:13 52° 65° (ENE) 966 4.1 -17.7°
Drops below altitude 10° 18:22:23 10° 142° (SE) 2,326 6.2 -18.6°
Enters shadow 18:23:14 - 144° (SE) 2,643 6.5 -18.8°
